When you browse on this site, cookies collect data to enhance your experience and personalize the content and advertising you see.
Visit our Privacy Policy to learn more. By continuing to use the site, you agree to this use of cookies and data.
  • In Lithuania
  • List of Countries
  • For 7 days
  • Water Temperature
  • Satellite Maps
  • Weather Map
  • Weather Widgets
  • user-avatar
    Login

    Hourly Weather Innsbruck

    Today, 20 June, Thursday

    Time Temperature Precipitation Wind Pressure Humidity
    00:00 +8°C° 0.1 mm 1 mps 596 mmHg 82%
    01:00 +7°C° 0 mm 2 mps 596 mmHg 79%
    02:00 +7°C° 0.4 mm 2 mps 595 mmHg 82%
    03:00 +7°C° 0.4 mm 1 mps 595 mmHg 85%
    04:00 +7°C° 0.4 mm 1 mps 595 mmHg 88%
    05:00 +8°C° 0.3 mm 1 mps 596 mmHg 86%
    06:00 +9°C° 0.3 mm 0 mps 597 mmHg 83%
    07:00 +10°C° 0.3 mm 0 mps 597 mmHg 81%
    08:00 +11°C° 1.1 mm 0 mps 598 mmHg 79%
    09:00 +13°C° 1.1 mm 1 mps 598 mmHg 78%
    10:00 +14°C° 1.1 mm 1 mps 598 mmHg 77%
    11:00 +14°C° 1.6 mm 1 mps 598 mmHg 77%
    12:00 +14°C° 1.6 mm 1 mps 598 mmHg 78%
    13:00 +14°C° 1.6 mm 1 mps 598 mmHg 79%
    14:00 +13°C° 1.3 mm 1 mps 598 mmHg 82%
    15:00 +13°C° 1.3 mm 1 mps 598 mmHg 85%
    16:00 +12°C° 1.3 mm 1 mps 597 mmHg 87%
    17:00 +12°C° 0.6 mm 1 mps 597 mmHg 89%
    18:00 +12°C° 0.6 mm 1 mps 597 mmHg 90%
    19:00 +11°C° 0.6 mm 1 mps 597 mmHg 91%
    20:00 +11°C° 0.7 mm 1 mps 597 mmHg 93%
    21:00 +10°C° 0.7 mm 1 mps 597 mmHg 94%
    22:00 +9°C° 0.7 mm 1 mps 597 mmHg 95%
    23:00 +9°C° 0.5 mm 1 mps 597 mmHg 95%

    Tomorrow, 21 June, Friday

    Time Temperature Precipitation Wind Pressure Humidity
    00:00 +9°C° 0.5 mm 1 mps 597 mmHg 95%
    01:00 +8°C° 0.5 mm 1 mps 597 mmHg 95%
    02:00 +8°C° 0.1 mm 1 mps 597 mmHg 93%
    03:00 +8°C° 0.1 mm 1 mps 597 mmHg 91%
    04:00 +7°C° 0.1 mm 0 mps 597 mmHg 90%
    05:00 +8°C° 0.2 mm 1 mps 597 mmHg 88%
    06:00 +9°C° 0.2 mm 1 mps 598 mmHg 87%
    07:00 +10°C° 0.2 mm 1 mps 598 mmHg 85%
    08:00 +11°C° 0.2 mm 1 mps 599 mmHg 78%
    09:00 +12°C° 0.2 mm 1 mps 599 mmHg 72%
    10:00 +13°C° 0.2 mm 1 mps 600 mmHg 65%
    11:00 +14°C° 0.1 mm 1 mps 600 mmHg 61%
    12:00 +15°C° 0.1 mm 1 mps 600 mmHg 57%
    13:00 +16°C° 0.1 mm 1 mps 601 mmHg 52%
    14:00 +15°C° 0.7 mm 1 mps 600 mmHg 61%
    15:00 +14°C° 0.7 mm 2 mps 600 mmHg 71%
    16:00 +14°C° 0.7 mm 2 mps 599 mmHg 80%
    17:00 +12°C° 2.2 mm 1 mps 599 mmHg 85%
    18:00 +11°C° 2.2 mm 1 mps 598 mmHg 91%
    19:00 +10°C° 2.2 mm 1 mps 598 mmHg 97%
    20:00 +10°C° 3.3 mm 1 mps 598 mmHg 98%
    21:00 +9°C° 3.3 mm 1 mps 598 mmHg 98%
    22:00 +9°C° 3.3 mm 1 mps 598 mmHg 98%
    23:00 +9°C° 1.3 mm 1 mps 598 mmHg 98%

    Day after tomorrow, 22 June, Saturday

    Time Temperature Precipitation Wind Pressure Humidity
    00:00 +7°C° 1.3 mm 0 mps 598 mmHg 98%
    01:00 +7°C° 1.3 mm 0 mps 598 mmHg 98%
    02:00 +7°C° 0.2 mm 0 mps 597 mmHg 97%
    03:00 +8°C° 0.2 mm 1 mps 597 mmHg 97%
    04:00 +8°C° 0.2 mm 1 mps 597 mmHg 97%
    05:00 +8°C° 0.1 mm 1 mps 597 mmHg 95%
    06:00 +9°C° 0.1 mm 1 mps 597 mmHg 94%
    07:00 +10°C° 0.1 mm 1 mps 598 mmHg 92%
    08:00 +10°C° 0.5 mm 1 mps 598 mmHg 90%
    09:00 +11°C° 0.5 mm 1 mps 598 mmHg 88%
    10:00 +11°C° 0.5 mm 1 mps 598 mmHg 85%
    11:00 +11°C° 0.8 mm 1 mps 598 mmHg 85%
    12:00 +11°C° 0.8 mm 1 mps 598 mmHg 86%
    13:00 +12°C° 0.8 mm 1 mps 598 mmHg 86%
    14:00 +11°C° 1.6 mm 1 mps 598 mmHg 87%
    15:00 +11°C° 1.6 mm 1 mps 598 mmHg 88%
    16:00 +10°C° 1.6 mm 1 mps 597 mmHg 89%
    17:00 +10°C° 1.1 mm 1 mps 597 mmHg 91%
    18:00 +10°C° 1.1 mm 1 mps 597 mmHg 93%
    19:00 +9°C° 1.1 mm 1 mps 597 mmHg 95%
    20:00 +9°C° 0.1 mm 1 mps 597 mmHg 95%
    21:00 +8°C° 0.1 mm 1 mps 597 mmHg 95%
    22:00 +7°C° 0.1 mm 1 mps 596 mmHg 95%
    23:00 +6°C° 0 mm 1 mps 596 mmHg 96%

    23 June, Sunday

    Time Temperature Precipitation Wind Pressure Humidity
    00:00 +6°C° 0 mm 1 mps 596 mmHg 96%
    01:00 +6°C° 0 mm 1 mps 596 mmHg 96%
    02:00 +6°C° 0 mm 1 mps 596 mmHg 96%
    03:00 +6°C° 0 mm 1 mps 596 mmHg 96%
    04:00 +6°C° 0 mm 1 mps 596 mmHg 97%
    05:00 +7°C° 0 mm 1 mps 597 mmHg 94%
    06:00 +8°C° 0 mm 1 mps 598 mmHg 92%
    07:00 +9°C° 0 mm 1 mps 598 mmHg 90%
    08:00 +11°C° 0 mm 1 mps 599 mmHg 80%
    09:00 +13°C° 0 mm 1 mps 600 mmHg 71%
    10:00 +15°C° 0 mm 1 mps 601 mmHg 62%
    11:00 +16°C° 0 mm 2 mps 601 mmHg 60%
    12:00 +17°C° 0 mm 2 mps 602 mmHg 57%
    13:00 +17°C° 0 mm 2 mps 602 mmHg 54%
    14:00 +17°C° 0 mm 2 mps 602 mmHg 57%
    15:00 +17°C° 0 mm 2 mps 602 mmHg 59%
    16:00 +17°C° 0 mm 2 mps 602 mmHg 61%
    17:00 +16°C° 0 mm 2 mps 601 mmHg 67%
    18:00 +15°C° 0 mm 2 mps 601 mmHg 73%
    19:00 +14°C° 0 mm 2 mps 601 mmHg 79%
    20:00 +12°C° 0 mm 1 mps 601 mmHg 85%
    21:00 +10°C° 0 mm 1 mps 600 mmHg 90%
    22:00 +7°C° 0 mm 0 mps 600 mmHg 95%
    23:00 +7°C° 0 mm 0 mps 600 mmHg 95%

    24 June, Monday

    Time Temperature Precipitation Wind Pressure Humidity
    00:00 +7°C° 0 mm 0 mps 600 mmHg 94%
    01:00 +6°C° 0 mm 0 mps 599 mmHg 93%
    02:00 +7°C° 0 mm 1 mps 599 mmHg 92%
    03:00 +7°C° 0 mm 1 mps 599 mmHg 91%
    04:00 +7°C° 0 mm 1 mps 599 mmHg 91%
    05:00 +8°C° 0 mm 0 mps 601 mmHg 83%
    06:00 +11°C° 0 mm 0 mps 602 mmHg 76%
    07:00 +13°C° 0 mm 0 mps 603 mmHg 69%
    08:00 +16°C° 0 mm 1 mps 604 mmHg 60%
    09:00 +19°C° 0 mm 1 mps 605 mmHg 51%
    10:00 +21°C° 0 mm 1 mps 606 mmHg 42%
    11:00 +21°C° 0 mm 2 mps 606 mmHg 39%
    12:00 +23°C° 0 mm 2 mps 606 mmHg 36%
    13:00 +24°C° 0 mm 2 mps 606 mmHg 32%
    14:00 +24°C° 0 mm 2 mps 606 mmHg 33%
    15:00 +24°C° 0 mm 2 mps 606 mmHg 34%
    16:00 +24°C° 0 mm 2 mps 606 mmHg 35%
    17:00 +21°C° 0 mm 2 mps 606 mmHg 48%
    18:00 +19°C° 0 mm 2 mps 605 mmHg 60%
    19:00 +19°C° 0 mm 1 mps 605 mmHg 72%
    20:00 +15°C° 0 mm 1 mps 604 mmHg 78%
    21:00 +13°C° 0 mm 1 mps 603 mmHg 83%
    22:00 +11°C° 0 mm 1 mps 603 mmHg 89%
    23:00 +11°C° 0 mm 1 mps 603 mmHg 87%

    25 June, Tuesday

    Time Temperature Precipitation Wind Pressure Humidity
    00:00 +10°C° 0 mm 1 mps 603 mmHg 85%
    01:00 +10°C° 0 mm 1 mps 602 mmHg 83%
    02:00 +10°C° 0 mm 1 mps 602 mmHg 82%
    03:00 +10°C° 0 mm 1 mps 602 mmHg 80%
    04:00 +9°C° 0 mm 1 mps 602 mmHg 78%
    05:00 +12°C° 0 mm 1 mps 603 mmHg 70%
    06:00 +14°C° 0 mm 0 mps 605 mmHg 62%
    07:00 +17°C° 0 mm 0 mps 606 mmHg 55%
    08:00 +21°C° 0 mm 1 mps 607 mmHg 47%
    09:00 +23°C° 0 mm 1 mps 608 mmHg 39%
    10:00 +25°C° 0 mm 1 mps 609 mmHg 31%
    11:00 +26°C° 0 mm 2 mps 609 mmHg 29%
    12:00 +27°C° 0 mm 2 mps 609 mmHg 26%
    13:00 +27°C° 0 mm 2 mps 609 mmHg 24%
    14:00 +27°C° 0 mm 3 mps 609 mmHg 26%
    15:00 +27°C° 0 mm 3 mps 609 mmHg 28%
    16:00 +26°C° 0 mm 3 mps 609 mmHg 30%
    17:00 +24°C° 0 mm 3 mps 608 mmHg 42%
    18:00 +21°C° 0 mm 2 mps 608 mmHg 54%
    19:00 +20°C° 0 mm 2 mps 607 mmHg 65%
    20:00 +18°C° 0 mm 1 mps 606 mmHg 72%
    21:00 +15°C° 0 mm 1 mps 606 mmHg 79%
    22:00 +13°C° 0 mm 1 mps 605 mmHg 85%
    23:00 +12°C° 0 mm 1 mps 605 mmHg 83%
    Show more